DMSP 5D-2 F11 DEB, 28325

Orbit data source: Space-Track

DMSP 5D-2 F11 DEB, 28325 is space debris in SSO originally from a launch on Thu, 28 Nov 1991 UTC launched from the Air Force Western Test Range (AFWTR). Debris objects in space refer to the collection of defunct objects orbiting the Earth. Examples of debris include non-operational satellites, rocket bodies, and fragments generated from explosions, collisions, or faulty payload assembly.

Loading next visibility...
Identifier
28325, 1991-082AN
Orbit
SSO
Country
Flag of USUS
Related business
Manufacturer
Unknown
Mission
Spacecraft
Bus & Motor
Unknown
Mass
Unknown
Launch date (UTC)
1991-11-28 (34 years ago)
Launch vehicle
Unknown
Launch site
Air Force Western Test Range (AFWTR)
Object type
Payload
Rocket body
Debris
Shape & HBR
Unknown shape, 0.1 m
Radar Cross Section
Small (<0.1 m²)

Expand to show TLE details & history
Last TLE update: 5 days ago

TLE from 5 days ago
0 DMSP 5D-2 F11 DEB
1 28325U 91082AN  25345.45176132  .00070922  00000-0  11206-1 0  9999
2 28325  98.5720 218.7532 0038312   0.9858 124.2547 14.71459041115118
Epoch: 2025-12-11T10:50Z
TLE epoch observation values (Epoch: 2025-12-11T10:50:32.178Z)
Latitude
53.61609°
Longitude
167.45163°
Altitude
680.442 km
Speed
7.513 km/s
True Right ascension
03h 21m 58s
True Declination
53° 26' 60"
Sunlit
Object was in full shadow at epoch
Visualization orbit readout
Latitude
Unknown
Longitude
Unknown
Altitude
Unknown
Speed
Unknown
Apparent Right ascension
Unknown
Apparent Declination
Unknown
Sunlit
N/A
Visualization observer readout
Local Sidereal Time
11:58:46
Azimuth
Unknown
Elevation
Unknown
Doppler factor
Unknown
Orbital elements
Apogee altitude
680.437 km
Perigee altitude
626.558 km
Semi-major axis
7,031.635 km
Eccentricity
0.00383
Inclination
98.572°
RAAN
218.7532°
Arg. of periapsis
0.9858°
True anomaly
124.61659°
Mean anomaly
124.2547°
Eccentric anomaly
124.43574°
Mean motion
3.68094 °/min
Orbital period
97.8 mins
BSTAR
0.011206
Loading maneuver chart data...
Computing Atmospheric mass density...

Documentation

Showing up to 5 results
|